ARG1609 SAZM-SACO

Flight info

Callsign ARG1609
Flight time 1h 57m
Altitude 38000
Route ESURO1G ESURO DCT DIL UW15 IRASU UZ113 SIMES SIMES1U
Aircraft E190/M-SDE3FGHIRWY/LB1

Departure

Time 2026-04-26 17:24
Airport Ástor Piazzola International Airport (SAZM)

Arrival

Time 2026-04-26 19:21
Airport Ingeniero Aeronáutico Ambrosio L.V. Taravella International Airport (SACO)
Time Latitude Longitude Altitude Speed Heading
2026-04-26 16:51 -37.93389 -57.58082 54 ft 0 kts 28°
2026-04-26 17:06 -37.93390 -57.58082 54 ft 0 kts 28°
2026-04-26 17:06 -37.93389 -57.58082 54 ft 0 kts 28°
2026-04-26 17:07 -37.93390 -57.58082 54 ft 0 kts 28°
2026-04-26 17:17 -37.93387 -57.58081 53 ft 2 kts 28°
2026-04-26 17:17 -37.93373 -57.58065 52 ft 4 kts 53°
2026-04-26 17:18 -37.93371 -57.58009 53 ft 9 kts 105°
2026-04-26 17:18 -37.93406 -57.57920 52 ft 13 kts 119°
2026-04-26 17:18 -37.93451 -57.57818 53 ft 13 kts 119°
2026-04-26 17:18 -37.93497 -57.57715 53 ft 14 kts 119°
2026-04-26 17:19 -37.93574 -57.57541 51 ft 14 kts 119°
2026-04-26 17:19 -37.93620 -57.57436 51 ft 14 kts 119°
2026-04-26 17:19 -37.93665 -57.57331 53 ft 14 kts 119°
2026-04-26 17:20 -37.93711 -57.57228 53 ft 13 kts 119°
2026-04-26 17:20 -37.93742 -57.57158 53 ft 14 kts 119°
2026-04-26 17:20 -37.93803 -57.57021 54 ft 13 kts 120°
2026-04-26 17:20 -37.93850 -57.56917 54 ft 14 kts 118°
2026-04-26 17:21 -37.93897 -57.56810 53 ft 14 kts 119°
2026-04-26 17:21 -37.93944 -57.56703 53 ft 14 kts 119°
2026-04-26 17:21 -37.93991 -57.56595 51 ft 14 kts 119°
2026-04-26 17:21 -37.94035 -57.56494 52 ft 12 kts 110°
2026-04-26 17:22 -37.94010 -57.56403 53 ft 11 kts 61°
2026-04-26 17:22 -37.93972 -57.56318 53 ft 11 kts 58°
2026-04-26 17:22 -37.93927 -57.56323 53 ft 8 kts 308°
2026-04-26 17:22 -37.93918 -57.56341 53 ft 0 kts 300°
2026-04-26 17:23 -37.93891 -57.56400 53 ft 30 kts 300°
2026-04-26 17:23 -37.93655 -57.56868 51 ft 93 kts 303°
2026-04-26 17:23 -37.93204 -57.57751 89 ft 140 kts 298°
2026-04-26 17:23 -37.92696 -57.58770 615 ft 134 kts 296°
2026-04-26 17:24 -37.92227 -57.59781 1006 ft 135 kts 298°
2026-04-26 17:24 -37.91738 -57.60860 1401 ft 149 kts 297°
2026-04-26 17:24 -37.91178 -57.62053 1704 ft 167 kts 297°
2026-04-26 17:24 -37.90548 -57.63393 1944 ft 188 kts 298°
2026-04-26 17:25 -37.89835 -57.64909 2142 ft 216 kts 298°
2026-04-26 17:25 -37.89024 -57.66622 2463 ft 241 kts 299°
2026-04-26 17:25 -37.88131 -57.68480 3208 ft 249 kts 298°
2026-04-26 17:25 -37.87226 -57.70356 4088 ft 252 kts 297°
2026-04-26 17:26 -37.86304 -57.72269 4977 ft 255 kts 297°
2026-04-26 17:26 -37.85375 -57.74194 5869 ft 258 kts 297°
2026-04-26 17:26 -37.84434 -57.76143 6694 ft 260 kts 297°
2026-04-26 17:26 -37.83487 -57.78107 7551 ft 262 kts 297°
2026-04-26 17:27 -37.82534 -57.80082 8417 ft 263 kts 297°
2026-04-26 17:27 -37.81577 -57.82061 9287 ft 265 kts 297°
2026-04-26 17:27 -37.80612 -57.84058 10006 ft 271 kts 297°
2026-04-26 17:27 -37.79685 -57.86239 10209 ft 292 kts 292°
2026-04-26 17:28 -37.78807 -57.88632 10639 ft 305 kts 292°
2026-04-26 17:28 -37.77905 -57.91078 11326 ft 309 kts 292°
2026-04-26 17:28 -37.76989 -57.93553 12054 ft 312 kts 292°
2026-04-26 17:28 -37.76060 -57.96050 12776 ft 316 kts 292°
2026-04-26 17:29 -37.75118 -57.98576 13505 ft 319 kts 293°
2026-04-26 17:29 -37.74488 -58.00260 13936 ft 321 kts 293°
2026-04-26 17:29 -37.73203 -58.03697 14761 ft 326 kts 292°
2026-04-26 17:29 -37.72233 -58.06295 15379 ft 329 kts 292°
2026-04-26 17:30 -37.71252 -58.08923 15996 ft 332 kts 292°
2026-04-26 17:30 -37.70262 -58.11577 16631 ft 336 kts 292°
2026-04-26 17:30 -37.69261 -58.14250 17231 ft 339 kts 293°
2026-04-26 17:30 -37.68205 -58.16885 17815 ft 343 kts 295°
2026-04-26 17:31 -37.67059 -58.19588 18356 ft 347 kts 296°
2026-04-26 17:31 -37.65895 -58.22272 18883 ft 350 kts 296°
2026-04-26 17:31 -37.64719 -58.24981 19406 ft 353 kts 295°
2026-04-26 17:31 -37.63541 -58.27716 19925 ft 356 kts 295°
2026-04-26 17:32 -37.62362 -58.30477 20451 ft 359 kts 295°
2026-04-26 17:32 -37.61175 -58.33273 20975 ft 363 kts 295°
2026-04-26 17:32 -37.59996 -58.36054 21468 ft 366 kts 295°
2026-04-26 17:32 -37.58789 -58.38894 21974 ft 369 kts 295°
2026-04-26 17:33 -37.57567 -58.41760 22477 ft 372 kts 295°
2026-04-26 17:33 -37.56334 -58.44643 22978 ft 376 kts 295°
2026-04-26 17:33 -37.55086 -58.47558 23405 ft 379 kts 295°
2026-04-26 17:34 -37.52568 -58.53445 24261 ft 382 kts 295°
2026-04-26 17:34 -37.51307 -58.56398 24718 ft 383 kts 295°
2026-04-26 17:34 -37.50043 -58.59356 25153 ft 384 kts 295°
2026-04-26 17:34 -37.48774 -58.62318 25592 ft 385 kts 295°
2026-04-26 17:35 -37.47502 -58.65285 26023 ft 385 kts 295°
2026-04-26 17:35 -37.46227 -58.68252 26460 ft 386 kts 295°
2026-04-26 17:35 -37.44947 -58.71225 26874 ft 387 kts 295°
2026-04-26 17:35 -37.43665 -58.74199 27288 ft 387 kts 295°
2026-04-26 17:36 -37.42394 -58.77146 27700 ft 388 kts 295°
2026-04-26 17:36 -37.41105 -58.80136 28102 ft 389 kts 295°
2026-04-26 17:36 -37.39813 -58.83130 28496 ft 390 kts 295°
2026-04-26 17:36 -37.38517 -58.86130 28885 ft 391 kts 295°
2026-04-26 17:37 -37.37214 -58.89136 29263 ft 392 kts 295°
2026-04-26 17:37 -37.35910 -58.92147 29651 ft 392 kts 295°
2026-04-26 17:37 -37.34606 -58.95161 29965 ft 393 kts 295°
2026-04-26 17:38 -37.31984 -59.01209 30521 ft 395 kts 295°
2026-04-26 17:38 -37.30668 -59.04241 30800 ft 396 kts 294°
2026-04-26 17:38 -37.29346 -59.07283 31060 ft 397 kts 294°
2026-04-26 17:38 -37.28028 -59.10314 31406 ft 395 kts 294°
2026-04-26 17:39 -37.26713 -59.13331 31771 ft 393 kts 294°
2026-04-26 17:39 -37.25400 -59.16337 32138 ft 392 kts 294°
2026-04-26 17:39 -37.24090 -59.19335 32475 ft 391 kts 294°
2026-04-26 17:39 -37.22751 -59.22301 32816 ft 392 kts 298°
2026-04-26 17:40 -37.21068 -59.25022 33157 ft 396 kts 306°
2026-04-26 17:40 -37.19858 -59.26732 33396 ft 396 kts 305°
2026-04-26 17:40 -37.17418 -59.30187 33715 ft 395 kts 305°
2026-04-26 17:40 -37.15604 -59.32769 33758 ft 394 kts 305°
2026-04-26 17:41 -37.11986 -59.37926 33770 ft 394 kts 305°
2026-04-26 17:41 -37.08366 -59.43070 33783 ft 394 kts 305°
2026-04-26 17:42 -37.04733 -59.48206 33808 ft 394 kts 305°
2026-04-26 17:42 -37.01102 -59.53340 33825 ft 394 kts 304°
2026-04-26 17:43 -36.97471 -59.58474 33847 ft 394 kts 304°
2026-04-26 17:43 -36.93828 -59.63603 33849 ft 394 kts 304°
2026-04-26 17:44 -36.90190 -59.68725 33854 ft 394 kts 304°
2026-04-26 17:44 -36.86553 -59.73849 33856 ft 394 kts 304°
2026-04-26 17:45 -36.82904 -59.78966 33862 ft 394 kts 304°
2026-04-26 17:45 -36.79248 -59.84079 33868 ft 395 kts 304°
2026-04-26 17:46 -36.75595 -59.89182 33880 ft 395 kts 304°
2026-04-26 17:46 -36.71935 -59.94295 33879 ft 395 kts 304°
2026-04-26 17:47 -36.68893 -59.98543 33890 ft 395 kts 304°
2026-04-26 17:47 -36.64610 -60.04517 33885 ft 395 kts 304°
2026-04-26 17:48 -36.60947 -60.09619 33895 ft 395 kts 304°
2026-04-26 17:48 -36.57276 -60.14709 33896 ft 395 kts 304°
2026-04-26 17:49 -36.53608 -60.19791 33906 ft 395 kts 303°
2026-04-26 17:49 -36.49937 -60.24881 33901 ft 395 kts 303°
2026-04-26 17:50 -36.46299 -60.29985 33908 ft 395 kts 303°
2026-04-26 17:50 -36.42665 -60.35102 33923 ft 395 kts 303°
2026-04-26 17:51 -36.39025 -60.40200 33929 ft 394 kts 303°
2026-04-26 17:51 -36.35410 -60.45259 33925 ft 394 kts 303°
2026-04-26 17:52 -36.31744 -60.50368 33931 ft 394 kts 303°
2026-04-26 17:52 -36.28120 -60.55401 33931 ft 393 kts 303°
2026-04-26 17:53 -36.24460 -60.60493 33941 ft 393 kts 302°
2026-04-26 17:54 -36.19021 -60.68052 33947 ft 394 kts 302°
2026-04-26 17:54 -36.15375 -60.73111 33951 ft 394 kts 302°
2026-04-26 17:55 -36.11709 -60.78166 33954 ft 395 kts 303°
2026-04-26 17:55 -36.07988 -60.83164 33955 ft 395 kts 303°
2026-04-26 17:56 -36.04240 -60.88131 33968 ft 394 kts 303°
2026-04-26 17:57 -35.96783 -60.98033 33968 ft 393 kts 302°
2026-04-26 17:57 -35.93091 -61.02946 33978 ft 393 kts 302°
2026-04-26 17:58 -35.85655 -61.12809 33984 ft 392 kts 302°
2026-04-26 17:59 -35.80077 -61.20168 33991 ft 391 kts 302°
2026-04-26 17:59 -35.76363 -61.25065 33994 ft 391 kts 302°
2026-04-26 18:00 -35.72656 -61.29953 33997 ft 390 kts 302°
2026-04-26 18:00 -35.68957 -61.34830 34003 ft 390 kts 302°
2026-04-26 18:01 -35.65252 -61.39705 34002 ft 390 kts 302°
2026-04-26 18:01 -35.61549 -61.44562 34011 ft 390 kts 302°
2026-04-26 18:02 -35.59160 -61.47687 34018 ft 389 kts 302°
2026-04-26 18:02 -35.54204 -61.54173 34011 ft 389 kts 302°
2026-04-26 18:03 -35.52342 -61.56601 34117 ft 391 kts 302°
2026-04-26 18:03 -35.50484 -61.59026 34388 ft 390 kts 302°
2026-04-26 18:03 -35.49251 -61.60636 34550 ft 390 kts 302°
2026-04-26 18:03 -35.46763 -61.63883 34859 ft 390 kts 302°
2026-04-26 18:04 -35.45538 -61.65481 35013 ft 391 kts 302°
2026-04-26 18:04 -35.43672 -61.67909 35219 ft 391 kts 302°
2026-04-26 18:04 -35.41803 -61.70336 35438 ft 391 kts 302°
2026-04-26 18:05 -35.37693 -61.74838 35842 ft 412 kts 317°
2026-04-26 18:05 -35.35091 -61.76466 35995 ft 424 kts 322°
2026-04-26 18:05 -35.32427 -61.77974 36031 ft 421 kts 323°
2026-04-26 18:06 -35.27128 -61.80954 36035 ft 418 kts 322°
2026-04-26 18:06 -35.21890 -61.83918 36038 ft 417 kts 322°
2026-04-26 18:07 -35.16625 -61.86904 36035 ft 417 kts 322°
2026-04-26 18:07 -35.11366 -61.89876 36035 ft 417 kts 322°
2026-04-26 18:08 -35.06095 -61.92849 36027 ft 417 kts 322°
2026-04-26 18:08 -35.00836 -61.95813 36030 ft 417 kts 323°
2026-04-26 18:09 -34.95572 -61.98775 36024 ft 416 kts 323°
2026-04-26 18:09 -34.90313 -62.01728 36022 ft 416 kts 323°
2026-04-26 18:10 -34.85059 -62.04676 36028 ft 415 kts 323°
2026-04-26 18:10 -34.79818 -62.07621 36031 ft 414 kts 323°
2026-04-26 18:11 -34.74613 -62.10532 36034 ft 414 kts 323°
2026-04-26 18:11 -34.69382 -62.13447 36043 ft 413 kts 323°
2026-04-26 18:12 -34.64168 -62.16368 36042 ft 412 kts 323°
2026-04-26 18:12 -34.58957 -62.19278 36044 ft 412 kts 323°
2026-04-26 18:13 -34.53756 -62.22167 36050 ft 411 kts 323°
2026-04-26 18:13 -34.48559 -62.25054 36053 ft 410 kts 323°
2026-04-26 18:14 -34.43374 -62.27943 36053 ft 410 kts 323°
2026-04-26 18:14 -34.38197 -62.30825 36055 ft 409 kts 323°
2026-04-26 18:15 -34.33022 -62.33705 36057 ft 409 kts 323°
2026-04-26 18:15 -34.27851 -62.36575 36061 ft 408 kts 323°
2026-04-26 18:16 -34.22724 -62.39422 36060 ft 408 kts 323°
2026-04-26 18:16 -34.14997 -62.43694 36066 ft 406 kts 323°
2026-04-26 18:17 -34.09859 -62.46537 36071 ft 406 kts 323°
2026-04-26 18:17 -34.04727 -62.49374 36071 ft 405 kts 324°
2026-04-26 18:18 -33.99611 -62.52194 36076 ft 404 kts 324°
2026-04-26 18:18 -33.94502 -62.55006 36080 ft 403 kts 323°
2026-04-26 18:19 -33.89404 -62.57816 36080 ft 403 kts 324°
2026-04-26 18:19 -33.84301 -62.60614 36080 ft 402 kts 324°
2026-04-26 18:20 -33.79210 -62.63405 36079 ft 402 kts 324°
2026-04-26 18:20 -33.74916 -62.65620 36078 ft 406 kts 326°
2026-04-26 18:21 -33.68732 -62.68463 36079 ft 407 kts 328°
2026-04-26 18:21 -33.63435 -62.70864 36077 ft 407 kts 327°
2026-04-26 18:22 -33.58165 -62.73315 36076 ft 406 kts 327°
2026-04-26 18:22 -33.52914 -62.75786 36078 ft 405 kts 327°
2026-04-26 18:23 -33.47663 -62.78243 36075 ft 405 kts 327°
2026-04-26 18:23 -33.42483 -62.80820 36077 ft 400 kts 324°
2026-04-26 18:24 -33.37471 -62.83676 36071 ft 398 kts 322°
2026-04-26 18:24 -33.32480 -62.86567 36072 ft 399 kts 323°
2026-04-26 18:25 -33.27488 -62.89381 36066 ft 399 kts 323°
2026-04-26 18:25 -33.22442 -62.92177 36063 ft 400 kts 323°
2026-04-26 18:26 -33.17393 -62.94969 36063 ft 400 kts 323°
2026-04-26 18:26 -33.12341 -62.97769 36068 ft 400 kts 323°
2026-04-26 18:27 -33.07287 -63.00566 36079 ft 401 kts 323°
2026-04-26 18:27 -33.02227 -63.03365 36082 ft 401 kts 323°
2026-04-26 18:28 -32.97165 -63.06168 36090 ft 401 kts 323°
2026-04-26 18:28 -32.92107 -63.08967 36090 ft 401 kts 323°
2026-04-26 18:29 -32.87042 -63.11760 36086 ft 401 kts 324°
2026-04-26 18:29 -32.81981 -63.14547 36090 ft 401 kts 324°
2026-04-26 18:30 -32.76920 -63.17332 36086 ft 401 kts 324°
2026-04-26 18:30 -32.71858 -63.20116 36091 ft 401 kts 324°
2026-04-26 18:31 -32.66794 -63.22890 36081 ft 401 kts 324°
2026-04-26 18:31 -32.61734 -63.25665 36088 ft 400 kts 324°
2026-04-26 18:32 -32.56682 -63.28436 36086 ft 400 kts 324°
2026-04-26 18:32 -32.51621 -63.31205 36086 ft 400 kts 324°
2026-04-26 18:33 -32.46546 -63.33970 36074 ft 402 kts 324°
2026-04-26 18:33 -32.41454 -63.36744 36072 ft 404 kts 324°
2026-04-26 18:34 -32.36335 -63.39541 36075 ft 405 kts 324°
2026-04-26 18:34 -32.31234 -63.42317 36075 ft 407 kts 324°
2026-04-26 18:35 -32.26084 -63.45108 36075 ft 407 kts 324°
2026-04-26 18:35 -32.20937 -63.47905 36078 ft 408 kts 324°
2026-04-26 18:36 -32.15780 -63.50703 36076 ft 408 kts 324°
2026-04-26 18:36 -32.10619 -63.53491 36075 ft 408 kts 324°
2026-04-26 18:37 -32.05380 -63.56148 36074 ft 420 kts 333°
2026-04-26 18:37 -32.02439 -63.56746 36074 ft 436 kts 343°
2026-04-26 18:37 -31.99415 -63.57063 36078 ft 437 kts 343°
2026-04-26 18:38 -31.93351 -63.57665 36077 ft 438 kts 343°
2026-04-26 18:38 -31.87286 -63.58279 36074 ft 437 kts 343°
2026-04-26 18:39 -31.81220 -63.58898 36082 ft 437 kts 343°
2026-04-26 18:39 -31.75157 -63.59512 36091 ft 437 kts 343°
2026-04-26 18:40 -31.69098 -63.60123 36096 ft 437 kts 343°
2026-04-26 18:40 -31.63046 -63.60744 36096 ft 436 kts 342°
2026-04-26 18:41 -31.57002 -63.61368 36100 ft 436 kts 343°
2026-04-26 18:41 -31.50997 -63.61975 36102 ft 435 kts 342°
2026-04-26 18:42 -31.44963 -63.62586 36104 ft 435 kts 342°
2026-04-26 18:42 -31.39283 -63.64056 36102 ft 395 kts 318°
2026-04-26 18:43 -31.37204 -63.65980 36099 ft 371 kts 302°
2026-04-26 18:43 -31.35609 -63.68317 36089 ft 367 kts 299°
2026-04-26 18:43 -31.32506 -63.73006 36085 ft 367 kts 300°
2026-04-26 18:44 -31.29373 -63.77722 36087 ft 368 kts 300°
2026-04-26 18:44 -31.26227 -63.82443 36081 ft 368 kts 300°
2026-04-26 18:45 -31.23071 -63.87155 36101 ft 368 kts 300°
2026-04-26 18:45 -31.19909 -63.91858 36102 ft 368 kts 300°
2026-04-26 18:46 -31.16890 -63.96367 36101 ft 368 kts 300°
2026-04-26 18:46 -31.13736 -64.01076 36100 ft 368 kts 300°
2026-04-26 18:47 -31.10572 -64.05781 36097 ft 368 kts 300°
2026-04-26 18:47 -31.08140 -64.10817 36094 ft 349 kts 274°
2026-04-26 18:48 -31.08182 -64.16431 36100 ft 340 kts 266°
2026-04-26 18:48 -31.08453 -64.19109 36101 ft 326 kts 256°
2026-04-26 18:48 -31.09564 -64.21392 36107 ft 333 kts 232°
2026-04-26 18:49 -31.11583 -64.22878 36112 ft 361 kts 209°
2026-04-26 18:49 -31.14179 -64.23248 36114 ft 395 kts 188°
2026-04-26 18:49 -31.16962 -64.22747 36115 ft 411 kts 181°
2026-04-26 18:49 -31.19728 -64.22070 36113 ft 412 kts 181°
2026-04-26 18:50 -31.25335 -64.20808 36115 ft 404 kts 187°
2026-04-26 18:50 -31.30843 -64.20480 36111 ft 395 kts 191°
2026-04-26 18:51 -31.33626 -64.20021 36116 ft 411 kts 180°
2026-04-26 18:51 -31.36391 -64.18860 36113 ft 436 kts 162°
2026-04-26 18:51 -31.38107 -64.17545 36111 ft 454 kts 148°
2026-04-26 18:51 -31.40198 -64.14657 36113 ft 479 kts 125°
2026-04-26 18:52 -31.41390 -64.10967 36114 ft 494 kts 102°
2026-04-26 18:52 -31.41489 -64.06944 36116 ft 498 kts 80°
2026-04-26 18:52 -31.39758 -63.97722 36112 ft 499 kts 75°
2026-04-26 18:53 -31.39250 -63.95038 35920 ft 499 kts 78°
2026-04-26 18:53 -31.39006 -63.91020 35527 ft 495 kts 90°
2026-04-26 18:53 -31.38999 -63.87010 35141 ft 491 kts 91°
2026-04-26 18:53 -31.39010 -63.83031 34796 ft 486 kts 91°
2026-04-26 18:54 -31.39029 -63.79090 34459 ft 482 kts 91°
2026-04-26 18:54 -31.39048 -63.75181 34116 ft 478 kts 91°
2026-04-26 18:54 -31.39058 -63.71311 33761 ft 474 kts 91°
2026-04-26 18:54 -31.39061 -63.67469 33410 ft 469 kts 91°
2026-04-26 18:55 -31.39059 -63.63668 33061 ft 465 kts 91°
2026-04-26 18:55 -31.38703 -63.59936 32745 ft 459 kts 72°
2026-04-26 18:55 -31.37527 -63.56518 32391 ft 448 kts 57°
2026-04-26 18:55 -31.35982 -63.53375 32023 ft 443 kts 53°
2026-04-26 18:56 -31.34325 -63.50371 31686 ft 437 kts 50°
2026-04-26 18:56 -31.32605 -63.47454 31338 ft 433 kts 49°
2026-04-26 18:56 -31.30897 -63.44634 30998 ft 429 kts 49°
2026-04-26 18:56 -31.29323 -63.41619 30650 ft 430 kts 63°
2026-04-26 18:57 -31.28431 -63.38296 30304 ft 429 kts 82°
2026-04-26 18:57 -31.28262 -63.36003 30051 ft 425 kts 94°
2026-04-26 18:57 -31.28870 -63.31532 29496 ft 411 kts 115°
2026-04-26 18:57 -31.30017 -63.28544 29071 ft 397 kts 129°
2026-04-26 18:58 -31.31628 -63.26008 28666 ft 380 kts 143°
2026-04-26 18:58 -31.33569 -63.24020 28260 ft 363 kts 156°
2026-04-26 18:58 -31.35714 -63.22597 27870 ft 347 kts 168°
2026-04-26 18:58 -31.37944 -63.21722 27477 ft 331 kts 179°
2026-04-26 18:59 -31.40103 -63.21366 27089 ft 317 kts 189°
2026-04-26 18:59 -31.42254 -63.21452 26713 ft 304 kts 198°
2026-04-26 18:59 -31.44281 -63.21942 26324 ft 292 kts 207°
2026-04-26 18:59 -31.46143 -63.22787 25951 ft 282 kts 215°
2026-04-26 19:00 -31.47812 -63.23930 25583 ft 274 kts 223°
2026-04-26 19:00 -31.49273 -63.25318 25198 ft 268 kts 230°
2026-04-26 19:00 -31.50513 -63.26911 24844 ft 262 kts 237°
2026-04-26 19:00 -31.51524 -63.28663 24473 ft 258 kts 243°
2026-04-26 19:01 -31.52301 -63.30555 24064 ft 257 kts 250°
2026-04-26 19:01 -31.52838 -63.32557 23646 ft 258 kts 257°
2026-04-26 19:01 -31.53130 -63.34634 23156 ft 260 kts 263°
2026-04-26 19:01 -31.53159 -63.36759 22676 ft 262 kts 270°
2026-04-26 19:02 -31.52919 -63.38891 22204 ft 266 kts 277°
2026-04-26 19:02 -31.52398 -63.40994 21739 ft 272 kts 285°
2026-04-26 19:02 -31.51446 -63.42959 21248 ft 283 kts 298°
2026-04-26 19:02 -31.50635 -63.44174 20898 ft 288 kts 302°
2026-04-26 19:03 -31.48852 -63.46575 20199 ft 295 kts 303°
2026-04-26 19:03 -31.47501 -63.48400 19685 ft 298 kts 302°
2026-04-26 19:03 -31.46174 -63.50275 19184 ft 300 kts 301°
2026-04-26 19:03 -31.44872 -63.52201 18691 ft 303 kts 300°
2026-04-26 19:04 -31.43585 -63.54166 18172 ft 304 kts 300°
2026-04-26 19:04 -31.42317 -63.56133 17615 ft 301 kts 300°
2026-04-26 19:04 -31.41068 -63.58084 17073 ft 298 kts 299°
2026-04-26 19:04 -31.39832 -63.60025 16534 ft 296 kts 299°
2026-04-26 19:05 -31.37396 -63.63862 15488 ft 292 kts 300°
2026-04-26 19:05 -31.36204 -63.65737 14986 ft 290 kts 300°
2026-04-26 19:05 -31.35007 -63.67610 14481 ft 286 kts 300°
2026-04-26 19:06 -31.33823 -63.69456 13993 ft 282 kts 300°
2026-04-26 19:06 -31.32652 -63.71282 13453 ft 279 kts 300°
2026-04-26 19:06 -31.31495 -63.73085 12910 ft 276 kts 300°
2026-04-26 19:06 -31.30350 -63.74869 12376 ft 273 kts 300°
2026-04-26 19:07 -31.29215 -63.76637 11854 ft 270 kts 300°
2026-04-26 19:07 -31.28089 -63.78390 11328 ft 268 kts 300°
2026-04-26 19:07 -31.26977 -63.80127 10825 ft 266 kts 300°
2026-04-26 19:07 -31.25872 -63.81852 10325 ft 264 kts 300°
2026-04-26 19:08 -31.24773 -63.83562 9819 ft 262 kts 301°
2026-04-26 19:08 -31.23681 -63.85260 9269 ft 260 kts 301°
2026-04-26 19:08 -31.22602 -63.86941 8738 ft 257 kts 302°
2026-04-26 19:08 -31.21533 -63.88607 8211 ft 255 kts 302°
2026-04-26 19:09 -31.20475 -63.90252 7694 ft 251 kts 303°
2026-04-26 19:09 -31.19441 -63.91853 7190 ft 249 kts 303°
2026-04-26 19:09 -31.18395 -63.93474 6766 ft 242 kts 304°
2026-04-26 19:09 -31.17427 -63.94973 6581 ft 227 kts 304°
2026-04-26 19:10 -31.16494 -63.96418 6395 ft 221 kts 304°
2026-04-26 19:10 -31.15585 -63.97829 6175 ft 215 kts 303°
2026-04-26 19:10 -31.14701 -63.99201 5973 ft 209 kts 302°
2026-04-26 19:10 -31.13838 -64.00539 5808 ft 201 kts 302°
2026-04-26 19:11 -31.13009 -64.01826 5593 ft 196 kts 302°
2026-04-26 19:11 -31.12202 -64.03075 5374 ft 190 kts 302°
2026-04-26 19:11 -31.11419 -64.04290 5177 ft 186 kts 302°
2026-04-26 19:11 -31.10656 -64.05471 5048 ft 177 kts 302°
2026-04-26 19:12 -31.09925 -64.06600 5014 ft 176 kts 301°
2026-04-26 19:12 -31.09177 -64.07764 5013 ft 180 kts 302°
2026-04-26 19:12 -31.08426 -64.08929 4784 ft 181 kts 302°
2026-04-26 19:12 -31.07666 -64.10108 4555 ft 181 kts 303°
2026-04-26 19:13 -31.06905 -64.11287 4499 ft 181 kts 302°
2026-04-26 19:13 -31.06154 -64.12448 4506 ft 181 kts 303°
2026-04-26 19:13 -31.05404 -64.13623 4509 ft 181 kts 303°
2026-04-26 19:13 -31.04865 -64.14914 4509 ft 176 kts 278°
2026-04-26 19:14 -31.04699 -64.16326 4507 ft 176 kts 270°
2026-04-26 19:14 -31.04659 -64.17737 4507 ft 172 kts 257°
2026-04-26 19:14 -31.04985 -64.19047 4505 ft 167 kts 239°
2026-04-26 19:14 -31.05408 -64.19809 4502 ft 165 kts 225°
2026-04-26 19:15 -31.06589 -64.20862 4512 ft 160 kts 201°
2026-04-26 19:15 -31.07649 -64.21193 4509 ft 158 kts 184°
2026-04-26 19:15 -31.08746 -64.21197 4508 ft 157 kts 178°
2026-04-26 19:15 -31.09839 -64.21179 4511 ft 157 kts 178°
2026-04-26 19:16 -31.10906 -64.21162 4505 ft 152 kts 177°
2026-04-26 19:16 -31.11971 -64.21144 4505 ft 150 kts 177°
2026-04-26 19:16 -31.13009 -64.21128 4509 ft 148 kts 178°
2026-04-26 19:16 -31.14020 -64.21111 4505 ft 147 kts 178°
2026-04-26 19:17 -31.15053 -64.21094 4400 ft 146 kts 178°
2026-04-26 19:17 -31.16069 -64.21078 4263 ft 146 kts 178°
2026-04-26 19:17 -31.17071 -64.21061 4082 ft 146 kts 178°
2026-04-26 19:17 -31.18099 -64.21044 3879 ft 146 kts 178°
2026-04-26 19:18 -31.19109 -64.21028 3694 ft 146 kts 177°
2026-04-26 19:18 -31.20126 -64.21011 3506 ft 146 kts 177°
2026-04-26 19:18 -31.21145 -64.20995 3308 ft 147 kts 177°
2026-04-26 19:18 -31.22151 -64.20978 3115 ft 146 kts 177°
2026-04-26 19:19 -31.23169 -64.20962 2921 ft 146 kts 177°
2026-04-26 19:19 -31.24186 -64.20945 2720 ft 139 kts 176°
2026-04-26 19:19 -31.25117 -64.20931 2529 ft 133 kts 176°
2026-04-26 19:19 -31.26041 -64.20916 2350 ft 133 kts 178°
2026-04-26 19:20 -31.26964 -64.20900 2166 ft 132 kts 178°
2026-04-26 19:20 -31.27585 -64.20890 2048 ft 132 kts 178°
2026-04-26 19:20 -31.28783 -64.20870 1815 ft 129 kts 178°
2026-04-26 19:20 -31.29688 -64.20854 1647 ft 132 kts 179°
2026-04-26 19:21 -31.30500 -64.20843 1613 ft 102 kts 179°
2026-04-26 19:21 -31.31072 -64.20835 1615 ft 58 kts 179°
2026-04-26 19:21 -31.31352 -64.20831 1618 ft 33 kts 179°
2026-04-26 19:21 -31.31469 -64.20913 1616 ft 13 kts 293°
2026-04-26 19:22 -31.31470 -64.21014 1613 ft 12 kts 247°
2026-04-26 19:22 -31.31518 -64.21076 1616 ft 1 kts 220°
2026-04-26 19:22 -31.31516 -64.21083 1614 ft 1 kts 270°
2026-04-26 19:22 -31.31513 -64.21106 1613 ft 4 kts 280°
2026-04-26 19:23 -31.31512 -64.21146 1613 ft 5 kts 266°
2026-04-26 19:23 -31.31513 -64.21163 1613 ft 0 kts 267°